Location: Bidart
(43.4376°N, 1.5913°W)
Time: 07:37:36
(UTC+00:00)

USA 229 DEB - Pass Details

Date: 18 April 2026
Orbit: 844 x 1364 km, 63.4° (Epoch: 10 January)

Event Time Altitude Azimuth Distance (km) Brightness Sun altitude
Rises 20:35:21 0° 300° (WNW) 3,693 8.3 -17.5°
Reaches altitude 10° 20:39:18 10° 324° (NW) 2,853 7.1 -18.1°
Maximum altitude 20:42:52 15° 356° (N) 2,626 6.3 -18.6°
Drops below altitude 10° 20:46:38 10° 28° (NNE) 3,058 6.2 -19.2°
Sets 20:51:10 0° 51° (NE) 4,140 6.6 -19.8°
